Wind_Speed
11 10 10 9 8 8 7 6 7 8 9 10 10 11 9 8 6 5 4 4 4 5 5 5 5 5 5 4 5 5 5 5 5 4 4 4 4 4 4 5 5 6 6 6 6 6 5 5 5
11 10 9 9 9 9 8 7 7 8 10 11 10 10 10 10 7 5 4 4 4 5 6 6 6 6 6 5 5 5 5 5 4 3 3 3 3 3 4 4 5 6 6 6 6 5 5 5 5
11 10 10 9 9 9 9 7 8 9 10 12 12 12 12 11 8 7 5 4 5 5 6 6 7 7 6 6 6 5 5 5 3 3 2 2 3 3 4 4 5 5 6 6 5 5 5 5 4
11 11 10 9 9 9 9 8 9 9 10 12 12 13 13 12 10 8 6 5 6 7 7 7 7 7 7 7 7 6 6 5 3 2 1 1 2 2 3 4 4 5 5 5 5 4 4 4 4
11 11 10 10 10 10 10 10 9 9 10 11 13 14 13 12 10 8 8 6 7 8 8 8 8 8 8 7 7 7 6 5 4 3 2 0 1 1 2 3 4 5 5 5 5 4 3 3 3
12 12 11 11 11 11 11 10 11 11 12 13 13 13 13 12 10 9 8 7 7 8 10 10 9 9 9 9 8 7 7 6 4 3 2 1 1 2 3 3 4 5 5 5 5 4 3 3 2
12 12 12 12 13 13 12 12 11 12 13 13 14 14 13 12 11 9 8 8 9 10 11 11 11 10 10 9 9 9 8 6 5 4 3 3 3 3 3 4 4 5 5 5 4 3 2 2 2
13 13 13 13 14 13 12 12 11 12 13 13 14 13 13 12 12 11 10 9 10 10 11 12 13 12 11 10 10 9 9 7 6 5 4 4 4 4 4 4 5 5 5 4 3 3 2 2 2
14 13 13 14 15 14 13 13 12 13 13 14 14 14 13 13 13 13 12 11 11 11 12 13 14 13 13 12 11 10 10 8 7 6 5 5 5 5 5 5 6 5 5 4 4 3 3 2 2
14 14 15 15 15 14 14 14 14 14 14 14 14 14 15 15 14 13 12 12 12 13 14 15 14 14 14 13 12 12 11 9 8 7 6 6 6 6 6 6 6 6 5 5 4 3 3 3 3
15 15 16 16 15 15 15 15 15 15 14 14 14 15 16 16 15 13 13 13 13 14 15 17 16 16 15 14 14 13 12 11 9 8 7 7 7 7 7 6 6 6 6 5 4 4 3 3 3
15 15 15 15 15 15 16 15 15 15 14 14 15 16 16 16 16 15 14 13 13 15 16 18 19 18 17 16 16 15 14 12 11 9 8 8 7 7 7 6 6 6 5 5 4 3 3 2 2
15 15 14 14 14 15 15 15 15 14 14 15 15 16 15 15 15 15 14 12 12 13 14 16 18 19 18 17 17 16 15 14 12 11 10 8 8 7 6 6 6 6 5 4 3 3 3 2 2
15 14 13 13 14 15 15 15 15 14 14 15 15 15 14 16 16 15 14 13 12 12 13 14 17 20 20 19 18 17 16 14 13 11 11 9 8 7 6 6 5 5 5 4 3 3 3 3 2
14 13 13 13 14 14 14 13 14 13 14 14 14 15 16 16 16 15 12 12 12 11 12 14 17 19 21 20 19 19 17 16 14 12 11 10 9 9 7 6 5 5 4 4 3 3 3 3 3
14 13 13 13 13 14 13 11 12 13 14 15 14 15 16 16 17 14 13 12 12 13 14 16 17 19 21 20 21 20 18 17 16 14 12 11 10 10 9 8 6 6 5 4 3 3 3 3 3
15 15 14 14 14 14 14 12 12 14 14 15 15 16 17 17 18 16 15 14 15 15 15 16 17 19 21 22 21 20 19 17 17 16 14 12 12 11 10 9 8 7 6 5 4 3 3 3 3
17 16 15 15 15 15 14 13 13 14 14 16 16 16 17 18 17 16 15 15 15 15 15 17 17 19 22 23 22 20 19 19 17 16 15 14 13 12 11 10 9 8 6 6 5 4 4 3 3
19 18 16 15 16 16 15 15 14 15 15 16 16 16 17 17 16 16 15 14 13 13 14 17 18 20 22 22 22 21 20 19 18 17 16 14 13 13 12 11 10 9 8 7 6 5 5 4 3
19 18 16 16 17 17 16 15 15 16 16 16 16 17 17 17 15 14 14 13 12 12 13 15 18 20 22 22 22 21 21 20 19 17 16 15 14 14 13 12 11 10 9 8 7 6 5 5 4
20 19 18 17 18 17 16 14 15 16 17 17 17 16 15 16 14 13 12 11 9 11 13 13 16 20 21 21 22 22 21 20 19 18 17 16 15 15 14 13 12 10 9 8 8 7 6 5 4
19 19 18 18 17 17 17 15 14 15 16 16 16 15 14 14 13 11 11 10 9 10 12 13 17 19 20 20 21 22 22 20 19 19 18 17 16 16 16 14 13 11 10 9 8 8 7 6 5
19 19 19 18 17 17 16 15 13 13 14 15 14 12 12 13 11 10 9 8 7 8 11 14 17 19 20 20 20 22 22 21 20 20 19 17 17 17 16 15 14 13 11 10 9 8 7 6 5
20 20 20 19 18 16 14 15 13 12 13 13 12 11 11 12 9 8 7 5 5 6 9 12 15 17 19 20 21 22 22 21 20 19 18 18 17 17 16 15 14 13 12 10 9 8 7 7 6
21 20 20 19 17 16 14 14 12 12 13 12 11 10 10 10 9 7 5 4 4 5 8 11 13 16 18 20 20 21 21 21 20 19 19 18 18 17 16 15 14 13 12 11 10 9 8 8 8
21 21 20 19 17 15 14 13 11 12 11 10 9 8 8 9 8 6 4 3 4 6 9 11 13 16 19 21 21 21 20 20 20 19 19 18 18 17 17 16 15 14 13 12 11 10 9 9 9
21 21 21 20 18 17 15 13 11 10 9 9 9 8 8 8 7 5 3 2 4 6 9 11 13 15 18 20 21 21 21 20 19 19 19 19 18 18 17 17 16 15 14 13 12 11 11 11 11
21 21 21 20 20 19 16 13 11 10 8 8 8 8 8 8 7 6 4 2 3 5 7 10 12 14 15 18 19 20 20 19 19 19 19 19 19 19 18 18 17 16 15 14 13 12 12 12 13
22 22 22 22 21 20 17 13 11 9 9 9 9 9 8 8 8 7 5 3 3 4 7 10 11 12 13 15 17 18 19 19 19 19 18 18 19 19 18 18 17 17 16 15 15 15 15 15 15
23 22 22 23 22 21 19 14 11 10 10 10 10 10 10 9 9 8 6 5 5 5 6 8 10 10 12 13 15 17 18 18 18 18 18 18 18 19 19 18 18 18 18 17 17 18 18 18 18
Wind_Direction
342 339 338 336 331 331 331 341 353 -0 5 8 9 11 11 3 4 352 327 306 276 247 230 224 218 207 191 173 152 135 127 115 104 92 78 67 55 47 41 40 39 37 35 34 35 37 40 45 48
339 337 333 328 325 320 324 331 342 354 3 6 6 3 360 358 352 341 317 298 271 250 235 229 223 215 203 188 170 153 141 127 114 101 85 70 56 43 34 31 32 31 30 28 30 32 35 39 43
334 332 325 320 319 318 320 327 336 349 360 1 359 356 350 350 344 332 315 295 262 242 235 231 223 218 210 202 189 171 161 148 133 121 96 68 52 35 26 23 23 25 25 24 26 30 30 31 36
327 325 320 314 315 316 315 323 335 347 350 354 354 350 350 348 341 328 310 291 258 238 233 233 225 220 217 213 202 186 175 166 155 146 126 66 45 30 19 13 10 12 14 15 16 21 22 24 27
321 317 315 310 309 312 312 318 329 340 345 350 349 344 342 340 335 321 307 287 258 240 231 229 226 219 216 212 208 200 189 181 175 177 183 204 1 1 354 352 356 358 1 2 1 3 9 16 20
312 313 309 304 304 310 310 316 325 339 341 340 342 339 335 332 328 312 296 278 258 245 237 231 223 220 216 212 211 210 204 196 192 199 218 247 266 297 326 332 341 345 347 348 349 349 357 1 5
306 307 303 301 303 304 308 317 321 329 334 337 338 335 330 326 326 315 295 273 257 245 238 231 223 218 215 213 214 216 213 209 206 215 237 259 262 281 307 318 324 331 335 337 336 338 342 344 343
302 301 297 296 297 298 306 313 319 326 329 333 332 326 323 321 319 312 295 275 256 243 238 233 228 222 216 215 216 214 214 216 218 228 247 259 266 276 289 301 309 318 325 325 322 321 314 310 314
300 293 292 293 293 296 302 308 315 323 323 324 324 323 322 318 315 309 294 275 259 246 237 232 227 222 219 217 217 216 215 218 224 233 244 251 260 268 278 289 299 306 308 305 308 312 299 288 287
294 288 290 293 294 294 299 305 311 313 315 318 320 320 320 318 317 313 299 278 266 253 240 231 226 222 221 218 218 217 217 220 225 233 239 246 254 263 275 282 291 294 294 295 294 295 281 277 274
291 286 291 295 295 295 297 301 308 309 311 313 314 313 317 317 317 311 300 285 269 254 239 231 226 222 221 222 220 218 217 220 224 232 237 243 253 263 273 276 283 287 288 288 284 279 266 260 258
290 291 293 294 295 294 297 301 308 309 310 310 308 310 313 314 313 306 299 290 273 255 245 232 223 221 221 220 219 218 218 219 220 224 233 243 253 266 271 269 273 281 282 283 282 261 246 245 250
288 291 293 290 289 293 295 299 305 307 306 307 307 308 306 308 307 302 295 287 274 253 245 231 223 220 218 217 218 217 217 219 221 225 230 240 252 258 267 267 265 268 272 271 268 248 222 232 238
285 286 286 282 284 287 288 293 299 301 300 303 309 313 308 306 307 303 294 284 277 260 242 228 221 218 216 215 214 215 217 218 222 226 229 236 241 241 249 258 254 252 259 262 261 241 228 239 240
276 273 272 273 276 280 284 292 299 297 301 304 309 311 307 309 312 306 295 282 270 255 241 224 221 219 216 214 214 213 216 218 222 224 228 232 236 235 240 247 241 237 245 253 254 238 227 237 241
266 262 259 264 269 277 283 292 294 297 301 304 307 307 308 306 309 304 294 275 262 255 241 225 222 218 215 213 214 215 218 221 222 224 227 230 234 235 237 236 236 234 238 246 243 234 234 233 236
256 255 255 259 268 274 283 290 297 303 305 306 307 307 309 309 308 306 296 278 267 260 242 226 220 216 214 213 213 213 218 220 221 223 225 229 233 229 229 229 231 232 232 234 231 229 234 227 223
250 253 254 258 268 275 286 295 301 307 307 307 306 309 310 312 310 307 300 287 271 253 239 230 221 216 212 210 210 213 217 219 220 222 224 228 230 227 225 226 226 226 227 229 229 226 225 220 212
250 253 253 256 267 275 287 296 302 309 310 308 307 309 312 311 310 307 300 291 270 252 239 229 220 212 210 208 209 211 214 218 218 221 222 225 225 221 221 222 223 225 226 226 225 219 212 209 203
249 252 254 256 265 275 287 296 302 307 310 311 308 307 308 307 309 307 302 294 269 247 233 230 220 209 207 206 207 208 212 214 214 217 220 219 218 217 217 219 220 223 222 219 217 212 206 200 198
249 252 254 257 265 277 287 292 301 308 310 312 311 309 307 309 307 305 302 298 270 241 227 227 219 210 207 204 207 208 209 209 212 215 216 215 214 213 213 213 216 217 213 210 203 199 195 198 201
247 252 254 260 269 277 289 294 303 310 310 312 314 313 309 309 306 302 297 293 270 239 224 220 212 209 204 200 204 205 204 208 212 210 209 209 211 211 210 211 214 213 209 206 201 200 201 205 208
247 250 255 262 270 279 289 297 306 310 312 314 317 317 314 313 305 298 295 285 267 237 216 213 207 205 200 197 199 201 201 205 204 203 204 207 210 209 209 210 212 209 205 204 204 204 208 214 219
248 249 255 262 269 277 289 296 305 307 312 312 317 321 322 319 310 304 301 276 258 226 200 196 193 192 193 193 195 197 197 200 201 200 201 204 207 206 205 207 206 205 204 206 207 209 215 224 231
248 252 255 261 268 277 284 290 304 305 307 308 314 320 326 329 330 323 306 260 236 194 177 179 183 185 186 187 190 194 196 198 200 199 200 202 203 203 203 204 205 205 206 209 213 217 224 231 240
245 251 256 262 267 272 277 287 303 306 302 304 309 312 317 326 330 336 327 249 209 188 180 178 181 183 183 186 189 191 194 197 197 198 199 202 202 202 202 205 205 208 211 215 220 223 230 239 248
240 246 255 262 269 272 275 281 291 299 297 300 304 302 304 313 322 328 330 276 200 182 173 176 177 181 185 188 192 192 194 196 196 199 201 204 205 205 205 207 207 211 215 220 226 231 238 248 255
240 245 251 259 267 270 272 278 284 286 288 290 299 296 297 301 307 312 313 276 206 192 180 178 182 185 187 193 195 195 196 198 202 205 208 210 209 209 210 210 212 216 221 227 235 241 246 253 258
239 243 248 256 263 269 273 278 283 284 286 286 291 292 293 292 297 297 293 261 222 194 187 188 188 188 189 192 194 197 200 202 207 211 211 212 213 213 213 215 218 224 231 238 243 249 253 256 260
245 248 250 255 260 264 270 275 279 279 284 281 284 289 287 283 286 284 275 259 223 208 199 196 194 197 196 197 197 200 202 205 209 211 214 217 219 220 221 223 227 233 238 244 250 255 258 261 264
Height
5882 5881 5880 5881 5881 5880 5878 5878 5878 5877 5876 5876 5875 5874 5874 5874 5874 5876 5874 5873 5873 5874 5875 5876 5877 5877 5878 5879 5880 5881 5882 5883 5884 5885 5886 5887 5888 5889 5889 5890 5890 5890 5891 5891 5891 5891 5891 5891 5891
5882 5881 5881 5880 5879 5879 5878 5877 5877 5876 5876 5875 5874 5874 5873 5872 5872 5872 5872 5872 5872 5873 5874 5875 5876 5877 5877 5878 5879 5880 5881 5883 5884 5885 5886 5887 5888 5889 5890 5890 5890 5891 5891 5891 5891 5891 5891 5891 5891
5881 5880 5881 5880 5878 5878 5878 5877 5877 5876 5875 5874 5874 5873 5872 5871 5871 5871 5871 5871 5871 5872 5873 5874 5875 5876 5877 5878 5879 5880 5881 5882 5884 5885 5886 5887 5888 5889 5889 5890 5890 5891 5891 5891 5891 5892 5892 5892 5892
5881 5880 5880 5879 5878 5877 5876 5876 5875 5875 5874 5873 5873 5872 5871 5870 5870 5870 5870 5870 5870 5871 5872 5873 5874 5875 5876 5877 5878 5879 5880 5882 5883 5884 5886 5887 5888 5888 5889 5890 5890 5891 5891 5891 5892 5892 5892 5892 5892
5880 5879 5879 5877 5877 5876 5875 5875 5874 5874 5873 5872 5871 5870 5870 5869 5868 5868 5868 5868 5869 5870 5871 5872 5873 5874 5875 5876 5877 5879 5880 5881 5882 5884 5885 5886 5887 5888 5889 5889 5890 5891 5891 5891 5891 5892 5892 5892 5892
5879 5878 5878 5876 5875 5875 5874 5874 5873 5872 5871 5870 5869 5868 5868 5867 5867 5867 5867 5867 5868 5868 5869 5870 5871 5872 5874 5875 5877 5878 5879 5880 5882 5883 5884 5885 5886 5887 5888 5889 5890 5890 5891 5891 5891 5891 5892 5892 5892
5879 5877 5876 5875 5874 5873 5873 5872 5871 5870 5870 5869 5868 5867 5866 5866 5865 5865 5865 5865 5866 5866 5867 5868 5869 5871 5872 5874 5876 5877 5879 5880 5881 5882 5883 5885 5885 5886 5887 5888 5889 5889 5890 5890 5890 5891 5891 5891 5891
5876 5876 5874 5873 5872 5872 5872 5871 5870 5869 5868 5868 5867 5866 5865 5864 5863 5863 5863 5863 5863 5864 5865 5866 5867 5869 5871 5873 5874 5876 5878 5879 5880 5881 5883 5884 5884 5885 5886 5887 5888 5888 5889 5889 5890 5890 5890 5890 5891
5874 5875 5873 5872 5871 5870 5870 5869 5868 5867 5866 5866 5865 5864 5863 5862 5861 5860 5860 5860 5860 5861 5862 5864 5865 5867 5869 5871 5873 5875 5876 5878 5879 5880 5882 5882 5883 5884 5885 5886 5887 5887 5888 5889 5889 5889 5889 5890 5890
5873 5872 5871 5870 5869 5869 5868 5867 5866 5865 5864 5863 5863 5862 5860 5859 5858 5857 5857 5857 5857 5858 5859 5860 5863 5865 5867 5869 5871 5873 5875 5876 5878 5879 5880 5881 5882 5883 5884 5885 5886 5886 5887 5887 5888 5888 5888 5889 5889
5870 5870 5869 5868 5867 5867 5866 5865 5864 5863 5862 5861 5860 5859 5858 5856 5855 5854 5854 5853 5854 5854 5855 5857 5860 5862 5864 5867 5869 5871 5873 5875 5877 5878 5879 5880 5881 5882 5883 5884 5884 5885 5886 5886 5887 5887 5887 5888 5888
5868 5867 5866 5866 5865 5865 5864 5863 5862 5860 5860 5858 5857 5856 5855 5854 5853 5851 5850 5849 5849 5850 5852 5853 5856 5858 5861 5864 5866 5868 5871 5873 5875 5876 5877 5879 5879 5880 5881 5882 5883 5884 5884 5885 5886 5886 5887 5887 5887
5865 5865 5864 5864 5863 5863 5862 5861 5860 5858 5857 5856 5854 5853 5851 5850 5849 5847 5846 5845 5845 5846 5848 5849 5852 5855 5858 5861 5864 5866 5868 5870 5872 5874 5876 5877 5878 5879 5880 5881 5882 5882 5883 5884 5885 5885 5886 5887 5887
5863 5862 5862 5861 5861 5860 5859 5859 5858 5856 5855 5853 5852 5850 5848 5846 5845 5844 5843 5842 5842 5842 5843 5846 5848 5851 5854 5857 5860 5863 5866 5868 5870 5872 5874 5875 5876 5878 5879 5880 5881 5881 5882 5883 5884 5885 5885 5886 5886
5860 5860 5860 5859 5858 5857 5857 5857 5855 5853 5852 5851 5850 5848 5845 5843 5841 5840 5838 5837 5837 5838 5840 5842 5845 5847 5850 5854 5857 5860 5863 5866 5868 5870 5872 5873 5875 5876 5877 5878 5879 5880 5881 5882 5883 5884 5884 5885 5886
5856 5857 5857 5857 5856 5855 5856 5855 5853 5851 5850 5848 5847 5845 5843 5840 5838 5836 5835 5833 5833 5834 5836 5838 5841 5843 5848 5851 5855 5858 5861 5863 5865 5868 5870 5872 5873 5875 5876 5877 5878 5879 5880 5881 5882 5883 5884 5884 5885
5853 5854 5854 5854 5853 5852 5852 5852 5850 5848 5847 5846 5844 5842 5839 5837 5835 5832 5831 5830 5829 5830 5831 5834 5837 5840 5844 5848 5851 5855 5858 5860 5863 5865 5867 5869 5871 5873 5874 5876 5877 5878 5879 5881 5882 5882 5883 5884 5884
5849 5850 5851 5851 5850 5849 5849 5849 5848 5846 5845 5843 5840 5838 5836 5833 5831 5829 5827 5825 5824 5825 5826 5829 5833 5836 5840 5844 5848 5851 5854 5857 5860 5863 5865 5867 5869 5871 5873 5874 5876 5877 5878 5879 5881 5881 5882 5883 5884
5846 5847 5848 5848 5847 5846 5846 5845 5845 5843 5842 5839 5837 5835 5833 5830 5827 5825 5823 5821 5820 5820 5821 5824 5828 5832 5836 5840 5844 5848 5851 5855 5858 5860 5863 5865 5867 5869 5871 5873 5874 5876 5877 5878 5879 5880 5881 5882 5883
5842 5844 5845 5845 5844 5843 5843 5842 5841 5840 5838 5836 5834 5832 5830 5827 5824 5821 5819 5817 5816 5816 5818 5821 5824 5828 5832 5836 5841 5844 5848 5852 5855 5858 5860 5863 5865 5867 5869 5871 5873 5874 5876 5877 5878 5879 5880 5881 5882
5839 5841 5841 5841 5841 5840 5840 5840 5839 5837 5835 5833 5831 5829 5826 5824 5821 5819 5816 5815 5813 5813 5815 5818 5820 5824 5828 5833 5837 5841 5845 5849 5852 5855 5858 5861 5863 5865 5868 5869 5871 5873 5874 5876 5877 5878 5880 5881 5882
5836 5837 5838 5838 5838 5838 5838 5837 5837 5834 5832 5830 5828 5826 5823 5821 5818 5817 5814 5812 5811 5812 5813 5815 5818 5821 5825 5829 5834 5838 5842 5846 5850 5853 5856 5858 5861 5863 5866 5867 5869 5871 5873 5875 5876 5877 5879 5880 5881
5833 5834 5834 5835 5835 5835 5835 5834 5835 5832 5830 5828 5826 5823 5821 5819 5816 5814 5812 5811 5810 5810 5811 5812 5815 5819 5823 5827 5831 5836 5840 5844 5847 5850 5853 5856 5859 5861 5864 5866 5868 5870 5872 5873 5875 5876 5878 5879 5880
5830 5831 5831 5831 5832 5833 5833 5832 5832 5829 5828 5826 5824 5822 5820 5817 5814 5813 5811 5810 5810 5810 5810 5811 5814 5817 5821 5825 5829 5834 5838 5842 5845 5848 5851 5854 5857 5860 5862 5864 5867 5869 5870 5872 5874 5875 5876 5877 5878
5826 5828 5829 5829 5829 5830 5830 5829 5830 5827 5826 5824 5823 5821 5819 5817 5814 5812 5811 5810 5810 5811 5811 5812 5814 5817 5821 5824 5829 5833 5837 5840 5843 5847 5850 5853 5855 5858 5860 5863 5865 5867 5869 5871 5872 5874 5875 5876 5877
5823 5824 5826 5826 5826 5827 5827 5827 5828 5825 5824 5822 5822 5821 5819 5818 5816 5813 5812 5811 5811 5812 5812 5814 5815 5817 5821 5825 5829 5832 5836 5839 5842 5845 5848 5851 5854 5856 5859 5861 5863 5866 5868 5869 5871 5872 5873 5874 5875
5819 5820 5822 5823 5823 5824 5824 5825 5825 5823 5822 5821 5820 5820 5819 5818 5816 5814 5813 5812 5812 5813 5814 5815 5817 5819 5822 5825 5828 5831 5834 5838 5841 5844 5847 5850 5852 5855 5857 5859 5862 5864 5866 5868 5869 5870 5871 5872 5873
5815 5817 5818 5819 5819 5820 5822 5822 5822 5822 5820 5820 5819 5818 5818 5817 5816 5815 5814 5813 5813 5814 5815 5816 5818 5820 5822 5824 5827 5830 5834 5837 5840 5843 5846 5848 5851 5853 5856 5858 5860 5862 5864 5866 5867 5868 5869 5870 5870
5811 5813 5813 5814 5815 5817 5817 5821 5820 5819 5819 5818 5817 5817 5816 5816 5816 5815 5814 5814 5814 5814 5815 5817 5818 5820 5822 5824 5827 5830 5833 5836 5839 5842 5844 5847 5849 5851 5853 5855 5858 5860 5861 5863 5864 5865 5866 5866 5867
5806 5807 5809 5811 5811 5812 5814 5819 5817 5817 5816 5816 5815 5815 5814 5815 5814 5814 5814 5814 5814 5815 5816 5817 5818 5820 5822 5824 5826 5829 5832 5835 5838 5840 5842 5845 5847 5849 5851 5853 5855 5857 5858 5860 5861 5861 5862 5862 5863